Location: Hochstatterhof
(48.7256°N, 10.3487°E)
Time: 03:02:20
(UTC+00:00)

ALOS - Pass Details

Date: 26 September 2023
Orbit: 676 x 679 km, 98.0° (Epoch: 04 December)

Event Time Altitude Azimuth Distance (km) Brightness Sun altitude
Rises 01:22:53 0° 24° (NNE) 3,055 6.6 -34.5°
Reaches altitude 10° 01:25:31 10° 38° (NE) 2,134 5.6 -34.2°
Enters shadow 01:28:40 24° 79° (E) 1,405 4.3 -33.8°
